| time (UTC) | temp F | wind direction | speed MPH | gust MPH | rain 1hr in | rain 24hr in | rain mn in | humidity % | barometer mb |
| 20260510100105 | 39 | 340 | 0.0 | 1.0 | 0.00 | 0.05 | 0.00 | 69 | 1015.4 |
| 20260510094605 | 40 | 0 | 0.0 | 1.0 | 0.00 | 0.05 | 0.00 | 67 | 1015.2 |
| 20260510093101 | 41 | 0 | 0.0 | 2.0 | 0.00 | 0.05 | 0.00 | 66 | 1015.0 |
| 20260510091558 | 42 | 0 | 0.0 | 3.0 | 0.00 | 0.05 | 0.00 | 64 | 1014.7 |
| 20260510090111 | 43 | 5 | 2.0 | 6.0 | 0.00 | 0.05 | 0.00 | 63 | 1014.5 |
| 20260510084556 | 43 | 327 | 2.0 | 8.0 | 0.00 | 0.05 | 0.00 | 63 | 1014.4 |
| 20260510083057 | 44 | 352 | 3.0 | 9.0 | 0.00 | 0.05 | 0.00 | 63 | 1014.0 |
| 20260510081557 | 44 | 327 | 2.0 | 11.0 | 0.00 | 0.05 | 0.00 | 62 | 1013.7 |
| 20260510080100 | 45 | 11 | 2.0 | 12.0 | 0.00 | 0.05 | 0.00 | 61 | 1013.5 |
| 20260510074605 | 45 | 352 | 4.0 | 11.0 | 0.00 | 0.05 | 0.00 | 63 | 1013.1 |
| 20260510073059 | 46 | 327 | 3.0 | 8.0 | 0.00 | 0.05 | 0.00 | 65 | 1012.9 |
| 20260510071604 | 46 | 5 | 2.0 | 7.0 | 0.00 | 0.05 | 0.00 | 65 | 1012.6 |
| 20260510070109 | 47 | 25 | 2.0 | 10.0 | 0.00 | 0.05 | 0.00 | 64 | 1012.5 |
| 20260510064603 | 47 | 352 | 2.0 | 11.0 | 0.00 | 0.05 | 0.00 | 65 | 1012.4 |
| 20260510063102 | 46 | 360 | 1.0 | 6.0 | 0.00 | 0.05 | 0.00 | 70 | 1012.2 |
| 20260510061601 | 47 | 360 | 0.0 | 3.0 | 0.00 | 0.05 | 0.00 | 70 | 1012.0 |
| 20260510054602 | 47 | 0 | 0.0 | 2.0 | 0.00 | 0.05 | 0.00 | 72 | 1011.6 |
| 20260510053055 | 47 | 349 | 1.0 | 3.0 | 0.00 | 0.05 | 0.00 | 72 | 1011.3 |
| 20260510051555 | 47 | 352 | 1.0 | 3.0 | 0.00 | 0.05 | 0.00 | 71 | 1011.0 |
| 20260510050059 | 48 | 348 | 0.0 | 2.0 | 0.00 | 0.05 | 0.00 | 69 | 1010.6 |
| 20260510044606 | 49 | 339 | 0.0 | 2.0 | 0.00 | 0.05 | 0.00 | 68 | 1010.4 |
| 20260510043106 | 50 | 360 | 1.0 | 2.0 | 0.00 | 0.05 | 0.00 | 66 | 1010.1 |
| 20260510041559 | 51 | 330 | 0.0 | 2.0 | 0.00 | 0.05 | 0.00 | 64 | 1010.0 |
| 20260510040058 | 52 | 0 | 0.0 | 2.0 | 0.00 | 0.05 | 0.00 | 61 | 1009.9 |
| 20260510034557 | 53 | 0 | 1.0 | 3.0 | 0.00 | 0.05 | 0.05 | 59 | 1009.7 |
| 20260510033121 | 54 | 355 | 1.0 | 4.0 | 0.00 | 0.05 | 0.05 | 57 | 1009.5 |
| 20260510031622 | 55 | 348 | 2.0 | 12.0 | 0.00 | 0.05 | 0.05 | 55 | 1009.4 |
| 20260510030059 | 56 | 346 | 3.0 | 8.0 | 0.00 | 0.05 | 0.05 | 52 | 1009.1 |
| 20260510024559 | 56 | 340 | 1.0 | 9.0 | 0.00 | 0.05 | 0.05 | 52 | 1008.9 |
| 20260510023057 | 57 | 352 | 3.0 | 6.0 | 0.00 | 0.05 | 0.05 | 50 | 1008.7 |
| 20260510021557 | 58 | 355 | 4.0 | 11.0 | 0.00 | 0.05 | 0.05 | 50 | 1008.3 |
| 20260510020058 | 59 | 355 | 5.0 | 18.0 | 0.00 | 0.05 | 0.05 | 47 | 1008.0 |
| 20260510014607 | 60 | 355 | 4.0 | 14.0 | 0.00 | 0.05 | 0.05 | 48 | 1007.5 |
| 20260510013056 | 61 | 5 | 3.0 | 11.0 | 0.00 | 0.05 | 0.05 | 50 | 1006.8 |
| 20260510011559 | 61 | 309 | 2.0 | 11.0 | 0.00 | 0.05 | 0.05 | 52 | 1006.3 |
| 20260510004600 | 61 | 351 | 1.0 | 4.0 | 0.00 | 0.05 | 0.05 | 55 | 1005.6 |
| 20260510003101 | 62 | 0 | 1.0 | 6.0 | 0.00 | 0.05 | 0.05 | 53 | 1005.2 |
| 20260510001556 | 63 | 344 | 2.0 | 5.0 | 0.00 | 0.05 | 0.05 | 51 | 1004.9 |
| 20260510000058 | 63 | 315 | 1.0 | 6.0 | 0.00 | 0.05 | 0.05 | 49 | 1004.7 |
| 20260509234608 | 64 | 317 | 4.0 | 10.0 | 0.00 | 0.05 | 0.05 | 48 | 1004.5 |
| 20260509233057 | 65 | 265 | 3.0 | 16.0 | 0.00 | 0.05 | 0.05 | 46 | 1004.3 |
| 20260509231556 | 65 | 265 | 8.0 | 15.0 | 0.00 | 0.05 | 0.05 | 45 | 1004.3 |
| 20260509224557 | 66 | 342 | 5.0 | 17.0 | 0.00 | 0.05 | 0.05 | 44 | 1004.2 |
| 20260509223100 | 66 | 297 | 5.0 | 15.0 | 0.00 | 0.05 | 0.05 | 43 | 1004.0 |
| 20260509221555 | 67 | 281 | 6.0 | 25.0 | 0.00 | 0.05 | 0.05 | 40 | 1003.8 |
| 20260509220105 | 68 | 292 | 7.0 | 23.0 | 0.00 | 0.05 | 0.05 | 40 | 1003.6 |
| 20260509214558 | 68 | 267 | 6.0 | 26.0 | 0.00 | 0.05 | 0.05 | 40 | 1003.3 |
| 20260509213104 | 68 | 44 | 10.0 | 25.0 | 0.00 | 0.05 | 0.05 | 39 | 1003.2 |
| 20260509211604 | 69 | 245 | 9.0 | 21.0 | 0.00 | 0.05 | 0.05 | 39 | 1003.1 |
| 20260509210101 | 69 | 288 | 3.0 | 18.0 | 0.00 | 0.05 | 0.05 | 43 | 1003.1 |
| 20260509204604 | 68 | 197 | 6.0 | 22.0 | 0.00 | 0.05 | 0.05 | 46 | 1003.2 |
| 20260509203058 | 67 | 327 | 2.0 | 17.0 | 0.00 | 0.05 | 0.05 | 44 | 1003.3 |
| 20260509201556 | 65 | 335 | 6.0 | 12.0 | 0.00 | 0.05 | 0.05 | 49 | 1003.7 |
| 20260509200057 | 64 | 257 | 4.0 | 16.0 | 0.00 | 0.05 | 0.05 | 51 | 1004.0 |
| 20260509194559 | 65 | 347 | 5.0 | 13.0 | 0.00 | 0.05 | 0.05 | 53 | 1004.0 |
| 20260509193100 | 65 | 319 | 6.0 | 19.0 | 0.00 | 0.05 | 0.05 | 53 | 1003.8 |
| 20260509191609 | 64 | 265 | 4.0 | 15.0 | 0.05 | 0.05 | 0.05 | 58 | 1003.7 |
| 20260509190100 | 63 | 155 | 1.0 | 7.0 | 0.05 | 0.05 | 0.05 | 79 | 1003.6 |
| 20260509184558 | 60 | 245 | 3.0 | 7.0 | 0.05 | 0.05 | 0.05 | 84 | 1003.4 |
| 20260509183101 | 60 | 0 | 3.0 | 17.0 | 0.05 | 0.05 | 0.05 | 73 | 1003.7 |
| 20260509181604 | 67 | 284 | 3.0 | 14.0 | 0.00 | 0.00 | 0.00 | 55 | 1003.1 |
| 20260509180100 | 70 | 265 | 7.0 | 16.0 | 0.00 | 0.00 | 0.00 | 49 | 1002.6 |
| 20260509174606 | 68 | 281 | 6.0 | 15.0 | 0.00 | 0.00 | 0.00 | 51 | 1002.9 |
| 20260509173112 | 67 | 320 | 4.0 | 20.0 | 0.00 | 0.00 | 0.00 | 53 | 1003.2 |
| 20260509171604 | 69 | 304 | 3.0 | 12.0 | 0.00 | 0.00 | 0.00 | 52 | 1003.2 |
| 20260509170100 | 69 | 179 | 2.0 | 9.0 | 0.00 | 0.00 | 0.00 | 53 | 1002.9 |
| 20260509164600 | 68 | 213 | 4.0 | 12.0 | 0.00 | 0.00 | 0.00 | 53 | 1003.0 |
| 20260509163108 | 67 | 153 | 3.0 | 14.0 | 0.00 | 0.00 | 0.00 | 58 | 1003.1 |
| 20260509161606 | 67 | 217 | 4.0 | 16.0 | 0.00 | 0.00 | 0.00 | 58 | 1003.3 |
| 20260509160101 | 66 | 175 | 3.0 | 10.0 | 0.00 | 0.00 | 0.00 | 60 | 1003.4 |
| 20260509154609 | 65 | 219 | 3.0 | 14.0 | 0.00 | 0.00 | 0.00 | 60 | 1003.5 |
| 20260509153058 | 64 | 202 | 5.0 | 18.0 | 0.00 | 0.00 | 0.00 | 65 | 1003.7 |
| 20260509151601 | 63 | 213 | 6.0 | 19.0 | 0.00 | 0.00 | 0.00 | 68 | 1003.6 |
| 20260509150058 | 62 | 179 | 4.0 | 12.0 | 0.00 | 0.00 | 0.00 | 72 | 1003.9 |
| 20260509144611 | 60 | 192 | 3.0 | 15.0 | 0.00 | 0.00 | 0.00 | 74 | 1003.9 |
| 20260509143058 | 58 | 92 | 3.0 | 11.0 | 0.00 | 0.00 | 0.00 | 82 | 1004.0 |
| 20260509141556 | 56 | 248 | 3.0 | 12.0 | 0.00 | 0.00 | 0.00 | 87 | 1004.3 |
| 20260509140114 | 55 | 119 | 3.0 | 9.0 | 0.00 | 0.00 | 0.00 | 91 | 1004.3 |
| 20260509134557 | 53 | 360 | 2.0 | 9.0 | 0.00 | 0.00 | 0.00 | 94 | 1004.6 |
| 20260509133103 | 52 | 130 | 2.0 | 9.0 | 0.00 | 0.00 | 0.00 | 95 | 1004.8 |
| 20260509131603 | 52 | 360 | 3.0 | 11.0 | 0.00 | 0.00 | 0.00 | 95 | 1005.1 |
| 20260509130107 | 51 | 213 | 4.0 | 10.0 | 0.00 | 0.00 | 0.00 | 95 | 1005.4 |
| 20260509124609 | 51 | 134 | 2.0 | 8.0 | 0.00 | 0.00 | 0.00 | 96 | 1005.4 |
| 20260509123059 | 50 | 188 | 0.0 | 6.0 | 0.00 | 0.00 | 0.00 | 96 | 1005.5 |
| 20260509121607 | 50 | 360 | 2.0 | 8.0 | 0.00 | 0.00 | 0.00 | 95 | 1005.4 |
| 20260509120057 | 49 | 0 | 2.0 | 7.0 | 0.00 | 0.00 | 0.00 | 95 | 1005.4 |
| 20260509114556 | 49 | 180 | 2.0 | 6.0 | 0.00 | 0.00 | 0.00 | 95 | 1005.6 |
| 20260509113058 | 48 | 360 | 2.0 | 5.0 | 0.00 | 0.00 | 0.00 | 95 | 1005.5 |
| 20260509111607 | 47 | 360 | 2.0 | 6.0 | 0.00 | 0.00 | 0.00 | 95 | 1005.4 |
| 20260509110056 | 47 | 360 | 1.0 | 5.0 | 0.00 | 0.00 | 0.00 | 95 | 1005.6 |
| 20260509104556 | 46 | 360 | 1.0 | 3.0 | 0.00 | 0.00 | 0.00 | 94 | 1005.4 |
| 20260509103103 | 45 | 360 | 1.0 | 3.0 | 0.00 | 0.00 | 0.00 | 93 | 1005.5 |
| 20260509101555 | 45 | 204 | 1.0 | 2.0 | 0.00 | 0.00 | 0.00 | 94 | 1005.6 |